TimeCST,TemperatureF,Dew PointF,Humidity,Sea Level PressureIn,VisibilityMPH,Wind Direction,Wind SpeedMPH,Gust SpeedMPH,PrecipitationIn,Events,Conditions,WindDirDegrees,DateUTC
12:15 AM,50.0,44.6,82,29.92,10.0,SE,9.2,-,N/A,,Clear,130,2012-11-26 06:15:00
12:35 AM,50.0,44.6,82,29.92,10.0,ESE,8.1,-,N/A,,Clear,120,2012-11-26 06:35:00
12:55 AM,50.0,44.6,82,29.92,10.0,ESE,8.1,-,N/A,,Clear,120,2012-11-26 06:55:00
1:15 AM,48.2,44.6,87,29.92,10.0,SE,8.1,-,N/A,,Clear,130,2012-11-26 07:15:00
1:35 AM,48.2,44.6,87,29.92,10.0,SE,8.1,-,N/A,,Clear,130,2012-11-26 07:35:00
1:55 AM,50.0,46.4,87,29.92,10.0,SSE,8.1,-,N/A,,Clear,150,2012-11-26 07:55:00
2:15 AM,51.8,48.2,88,29.92,10.0,SSE,6.9,-,N/A,,Clear,150,2012-11-26 08:15:00
2:35 AM,53.6,51.8,94,29.92,10.0,SSE,8.1,-,N/A,,Mostly Cloudy,150,2012-11-26 08:35:00
2:55 AM,53.6,51.8,94,29.92,10.0,SSE,9.2,-,N/A,,Mostly Cloudy,150,2012-11-26 08:55:00
3:15 AM,53.6,51.8,94,29.92,10.0,SSE,9.2,-,N/A,,Partly Cloudy,150,2012-11-26 09:15:00
3:35 AM,51.8,48.2,88,29.92,10.0,ESE,9.2,-,N/A,,Partly Cloudy,120,2012-11-26 09:35:00
3:55 AM,51.8,48.2,88,29.92,10.0,SE,8.1,-,N/A,,Mostly Cloudy,130,2012-11-26 09:55:00
4:15 AM,53.6,51.8,94,29.92,10.0,SE,6.9,-,N/A,,Overcast,140,2012-11-26 10:15:00
4:35 AM,53.6,53.6,100,29.91,10.0,ESE,6.9,-,N/A,,Overcast,120,2012-11-26 10:35:00
4:55 AM,53.6,53.6,100,29.91,10.0,ESE,6.9,-,N/A,,Overcast,120,2012-11-26 10:55:00
5:15 AM,55.4,53.6,94,29.92,10.0,ESE,8.1,-,N/A,,Overcast,120,2012-11-26 11:15:00
5:35 AM,55.4,53.6,94,29.92,10.0,ESE,6.9,-,N/A,,Overcast,120,2012-11-26 11:35:00
5:55 AM,55.4,53.6,94,29.93,10.0,SE,6.9,-,N/A,,Overcast,130,2012-11-26 11:55:00
6:15 AM,55.4,53.6,94,29.93,10.0,ESE,8.1,-,N/A,,Overcast,120,2012-11-26 12:15:00
6:35 AM,55.4,53.6,94,29.93,10.0,SE,8.1,-,N/A,,Overcast,130,2012-11-26 12:35:00
6:55 AM,55.4,55.4,100,29.93,10.0,ESE,9.2,-,N/A,,Overcast,120,2012-11-26 12:55:00
7:15 AM,57.2,55.4,94,29.94,10.0,ESE,9.2,-,N/A,,Overcast,120,2012-11-26 13:15:00
7:35 AM,57.2,55.4,94,29.94,10.0,SE,9.2,-,N/A,,Overcast,130,2012-11-26 13:35:00
7:55 AM,57.2,55.4,94,29.95,10.0,ESE,6.9,-,N/A,,Overcast,120,2012-11-26 13:55:00
8:15 AM,59.0,57.2,94,29.96,10.0,SE,4.6,-,N/A,,Overcast,140,2012-11-26 14:15:00
8:35 AM,59.0,57.2,94,29.97,10.0,SE,8.1,-,N/A,,Overcast,140,2012-11-26 14:35:00
8:55 AM,60.8,59.0,94,29.97,10.0,SE,10.4,-,N/A,,Overcast,140,2012-11-26 14:55:00
9:15 AM,62.6,59.0,88,29.97,10.0,SSE,9.2,-,N/A,,Overcast,160,2012-11-26 15:15:00
9:35 AM,62.6,60.8,94,29.97,10.0,South,10.4,-,N/A,,Overcast,170,2012-11-26 15:35:00
9:55 AM,64.4,60.8,88,29.97,10.0,South,9.2,-,N/A,,Overcast,180,2012-11-26 15:55:00
10:15 AM,66.2,60.8,83,29.97,10.0,South,9.2,-,N/A,,Overcast,190,2012-11-26 16:15:00
10:35 AM,66.2,60.8,83,29.97,10.0,SW,12.7,-,N/A,,Overcast,220,2012-11-26 16:35:00
10:55 AM,68.0,60.8,78,29.97,10.0,SW,12.7,-,N/A,,Overcast,230,2012-11-26 16:55:00
11:15 AM,69.8,59.0,68,29.97,10.0,SW,10.4,-,N/A,,Overcast,230,2012-11-26 17:15:00
11:35 AM,69.8,57.2,64,29.96,10.0,WSW,10.4,-,N/A,,Overcast,240,2012-11-26 17:35:00
11:55 AM,69.8,57.2,64,29.95,10.0,SW,10.4,-,N/A,,Overcast,230,2012-11-26 17:55:00
12:15 PM,71.6,57.2,60,29.94,10.0,SSW,10.4,-,N/A,,Overcast,210,2012-11-26 18:15:00
12:35 PM,71.6,57.2,60,29.93,10.0,SW,9.2,-,N/A,,Mostly Cloudy,220,2012-11-26 18:35:00
12:55 PM,71.6,57.2,60,29.93,10.0,WSW,8.1,-,N/A,,Mostly Cloudy,250,2012-11-26 18:55:00
1:15 PM,71.6,55.4,57,29.93,10.0,SW,10.4,-,N/A,,Mostly Cloudy,230,2012-11-26 19:15:00
1:35 PM,73.4,57.2,57,29.93,10.0,WSW,11.5,-,N/A,,Mostly Cloudy,250,2012-11-26 19:35:00
1:55 PM,71.6,55.4,57,29.93,10.0,West,3.5,-,N/A,,Scattered Clouds,260,2012-11-26 19:55:00
2:15 PM,73.4,55.4,53,29.93,10.0,WSW,8.1,-,N/A,,Scattered Clouds,250,2012-11-26 20:15:00
2:35 PM,73.4,55.4,53,29.93,10.0,West,9.2,-,N/A,,Partly Cloudy,280,2012-11-26 20:35:00
2:55 PM,73.4,55.4,53,29.94,10.0,West,9.2,-,N/A,,Partly Cloudy,260,2012-11-26 20:55:00
3:15 PM,73.4,53.6,50,29.94,10.0,West,9.2,-,N/A,,Scattered Clouds,260,2012-11-26 21:15:00
3:35 PM,75.2,53.6,47,29.95,10.0,WNW,8.1,-,N/A,,Scattered Clouds,290,2012-11-26 21:35:00
3:55 PM,71.6,55.4,57,29.96,10.0,NNE,12.7,-,N/A,,Mostly Cloudy,20,2012-11-26 21:55:00
4:15 PM,69.8,57.2,64,29.98,10.0,NNE,13.8,-,N/A,,Mostly Cloudy,20,2012-11-26 22:15:00
4:35 PM,69.8,57.2,64,29.99,10.0,NNE,12.7,-,N/A,,Mostly Cloudy,30,2012-11-26 22:35:00
4:55 PM,66.2,55.4,68,30.01,10.0,NNW,25.3,-,N/A,,Mostly Cloudy,340,2012-11-26 22:55:00
5:15 PM,62.6,50.0,63,30.03,10.0,North,18.4,-,N/A,,Mostly Cloudy,350,2012-11-26 23:15:00
5:35 PM,59.0,46.4,63,30.05,10.0,NNW,21.9,27.6,N/A,,Mostly Cloudy,330,2012-11-26 23:35:00
5:55 PM,55.4,44.6,67,30.06,10.0,NNW,20.7,25.3,N/A,,Mostly Cloudy,330,2012-11-26 23:55:00
6:15 PM,53.6,44.6,72,30.08,10.0,NNW,19.6,-,N/A,,Mostly Cloudy,340,2012-11-27 00:15:00
6:35 PM,51.8,42.8,71,30.10,10.0,NNW,19.6,27.6,N/A,,Partly Cloudy,340,2012-11-27 00:35:00
6:55 PM,50.0,42.8,76,30.11,10.0,NNW,21.9,28.8,N/A,,Scattered Clouds,340,2012-11-27 00:55:00
7:15 PM,48.2,41.0,76,30.13,10.0,North,23.0,29.9,N/A,,Mostly Cloudy,350,2012-11-27 01:15:00
7:35 PM,48.2,39.2,71,30.14,10.0,North,20.7,29.9,N/A,,Overcast,350,2012-11-27 01:35:00
7:55 PM,48.2,39.2,71,30.15,10.0,North,17.3,24.2,N/A,,Overcast,350,2012-11-27 01:55:00
8:15 PM,48.2,39.2,71,30.16,10.0,North,15.0,26.5,N/A,,Overcast,350,2012-11-27 02:15:00
8:35 PM,48.2,39.2,71,30.16,10.0,North,18.4,-,N/A,,Overcast,350,2012-11-27 02:35:00
8:55 PM,46.4,39.2,76,30.17,10.0,North,17.3,-,N/A,,Mostly Cloudy,350,2012-11-27 02:55:00
9:15 PM,46.4,37.4,71,30.18,10.0,North,18.4,24.2,N/A,,Mostly Cloudy,350,2012-11-27 03:15:00
9:35 PM,46.4,39.2,76,30.18,10.0,North,17.3,21.9,N/A,,Overcast,360,2012-11-27 03:35:00
9:55 PM,46.4,39.2,76,30.18,10.0,North,18.4,25.3,N/A,,Mostly Cloudy,360,2012-11-27 03:55:00
10:15 PM,46.4,39.2,76,30.20,10.0,North,16.1,21.9,N/A,,Overcast,360,2012-11-27 04:15:00
10:35 PM,46.4,39.2,76,30.20,10.0,North,20.7,-,N/A,,Overcast,350,2012-11-27 04:35:00
10:55 PM,46.4,39.2,76,30.21,10.0,North,12.7,-,N/A,,Overcast,360,2012-11-27 04:55:00
11:15 PM,46.4,39.2,76,30.23,10.0,North,13.8,-,N/A,,Overcast,360,2012-11-27 05:15:00
11:35 PM,46.4,37.4,71,30.23,10.0,North,13.8,-,N/A,,Overcast,350,2012-11-27 05:35:00
11:55 PM,46.4,37.4,71,30.23,10.0,North,13.8,20.7,N/A,,Mostly Cloudy,350,2012-11-27 05:55:00